
SB KEPS @ AMSAT $ORB11216.O Orbital Elements 11216.OSCAR
HR AMSAT ORBITAL ELEMENTS FOR OSCAR SATELLITES FROM WA5QGD FORT WORTH,TX August 4, 2011 Send Subscribe/unsubscribe to KEPS at http://www.amsat.org/mailman/listinfo/keps BID: ORB11216.O TO ALL RADIO AMATEURS BT
Satellite: AO-07 Catalog number: 07530 Epoch time: 11215.56085080 Element set: 0147 Inclination: 101.3939 deg RA of node: 220.2343 deg Eccentricity: 0.0011623 Arg of perigee: 185.5733 deg Mean anomaly: 174.5215 deg Mean motion: 12.53583334 rev/day Decay rate: -2.7e-07 rev/day^2 Epoch rev: 68012 Checksum: 263
Satellite: FO-29 Catalog number: 24278 Epoch time: 11215.90264978 Element set: 0630 Inclination: 098.5536 deg RA of node: 353.6120 deg Eccentricity: 0.0351269 Arg of perigee: 133.5087 deg Mean anomaly: 229.5812 deg Mean motion: 13.52963587 rev/day Decay rate: -6.0e-08 rev/day^2 Epoch rev: 73891 Checksum: 332
Satellite: SO-33 Catalog number: 25509 Epoch time: 11215.68773335 Element set: 0028 Inclination: 031.4384 deg RA of node: 335.6442 deg Eccentricity: 0.0354146 Arg of perigee: 296.9884 deg Mean anomaly: 059.4992 deg Mean motion: 14.28436544 rev/day Decay rate: 2.36e-06 rev/day^2 Epoch rev: 66707 Checksum: 334
Satellite: RS-22 Catalog number: 27939 Epoch time: 11216.62561435 Element set: 506 Inclination: 097.8406 deg RA of node: 068.2966 deg Eccentricity: 0.0013217 Arg of perigee: 187.2224 deg Mean anomaly: 172.8789 deg Mean motion: 14.63618392 rev/day Decay rate: 1.03e-06 rev/day^2 Epoch rev: 41942 Checksum: 318
Satellite: VO-52 Catalog number: 28650 Epoch time: 11216.63677579 Element set: 863 Inclination: 097.6377 deg RA of node: 257.5927 deg Eccentricity: 0.0026974 Arg of perigee: 005.6526 deg Mean anomaly: 354.4956 deg Mean motion: 14.82131234 rev/day Decay rate: 4.79e-06 rev/day^2 Epoch rev: 33792 Checksum: 353
Satellite: SO-67 Catalog number: 35870 Epoch time: 11216.77769441 Element set: 93 Inclination: 097.2775 deg RA of node: 258.5137 deg Eccentricity: 0.0001827 Arg of perigee: 163.7092 deg Mean anomaly: 308.3579 deg Mean motion: 15.20927413 rev/day Decay rate: 1.553e-05 rev/day^2 Epoch rev: 10432 Checksum: 320
Satellite: HO-68 Catalog number: 36122 Epoch time: 11216.80771170 Element set: 620 Inclination: 100.4119 deg RA of node: 276.8756 deg Eccentricity: 0.0007849 Arg of perigee: 113.4175 deg Mean anomaly: 246.7770 deg Mean motion: 13.16287466 rev/day Decay rate: -4.4e-07 rev/day^2 Epoch rev: 7863 Checksum: 306
/EX SB KEPS @ AMSAT $ORB11216.D Orbital Elements 11216.MICROS
HR AMSAT ORBITAL ELEMENTS FOR THE MICROSATS FROM WA5QGD FORT WORTH,TX August 4, 2011 Send Subscribe/unsubscribe to KEPS at http://www.amsat.org/mailman/listinfo/keps BID: ORB11216.D TO ALL RADIO AMATEURS BT
Satellite: UO-11 Catalog number: 14781 Epoch time: 11215.93837164 Element set: 0629 Inclination: 098.0025 deg RA of node: 272.4907 deg Eccentricity: 0.0008944 Arg of perigee: 352.4102 deg Mean anomaly: 007.6975 deg Mean motion: 14.80008121 rev/day Decay rate: 3.19e-06 rev/day^2 Epoch rev: 47285 Checksum: 296
Satellite: AO-16 Catalog number: 20439 Epoch time: 11215.88716067 Element set: 247 Inclination: 098.3866 deg RA of node: 163.9178 deg Eccentricity: 0.0011627 Arg of perigee: 025.8943 deg Mean anomaly: 334.2818 deg Mean motion: 14.31931253 rev/day Decay rate: 1.0e-07 rev/day^2 Epoch rev: 12444 Checksum: 302
Satellite: LO-19 Catalog number: 20442 Epoch time: 11215.88931001 Element set: 0176 Inclination: 098.3490 deg RA of node: 168.0891 deg Eccentricity: 0.0012337 Arg of perigee: 019.9014 deg Mean anomaly: 340.2645 deg Mean motion: 14.32156167 rev/day Decay rate: -2.0e-08 rev/day^2 Epoch rev: 12462 Checksum: 272
Satellite: AO-27 Catalog number: 22825 Epoch time: 11215.89150186 Element set: 880 Inclination: 098.5344 deg RA of node: 159.3668 deg Eccentricity: 0.0009025 Arg of perigee: 131.2806 deg Mean anomaly: 228.9151 deg Mean motion: 14.29356235 rev/day Decay rate: -1.7e-07 rev/day^2 Epoch rev: 93100 Checksum: 301
Satellite: IO-26 Catalog number: 22826 Epoch time: 11215.88219588 Element set: 0648 Inclination: 098.5260 deg RA of node: 159.8173 deg Eccentricity: 0.0009770 Arg of perigee: 125.5314 deg Mean anomaly: 234.6782 deg Mean motion: 14.29619636 rev/day Decay rate: 8.0e-08 rev/day^2 Epoch rev: 93112 Checksum: 328
Satellite: GO-32 Catalog number: 25397 Epoch time: 11216.63260944 Element set: 545 Inclination: 098.3291 deg RA of node: 206.6106 deg Eccentricity: 0.0001991 Arg of perigee: 112.3666 deg Mean anomaly: 247.7725 deg Mean motion: 14.23214632 rev/day Decay rate: -1.4e-07 rev/day^2 Epoch rev: 67885 Checksum: 301
Satellite: NO-44 Catalog number: 26931 Epoch time: 11215.54205039 Element set: 0817 Inclination: 067.0484 deg RA of node: 221.5047 deg Eccentricity: 0.0006025 Arg of perigee: 256.0774 deg Mean anomaly: 103.9661 deg Mean motion: 14.29670578 rev/day Decay rate: -8.0e-08 rev/day^2 Epoch rev: 51369 Checksum: 297
Satellite: SO-50 Catalog number: 27607 Epoch time: 11215.90148730 Element set: 0533 Inclination: 064.5578 deg RA of node: 182.6784 deg Eccentricity: 0.0076803 Arg of perigee: 311.1529 deg Mean anomaly: 048.2977 deg Mean motion: 14.71781883 rev/day Decay rate: 8.7e-07 rev/day^2 Epoch rev: 46311 Checksum: 323
Satellite: CO-55 Catalog number: 27844 Epoch time: 11215.57052424 Element set: 167 Inclination: 098.7071 deg RA of node: 223.5837 deg Eccentricity: 0.0010777 Arg of perigee: 062.1446 deg Mean anomaly: 298.0824 deg Mean motion: 14.20829566 rev/day Decay rate: 7.5e-07 rev/day^2 Epoch rev: 41964 Checksum: 318
Satellite: CO-57 Catalog number: 27848 Epoch time: 11215.52131455 Element set: 118 Inclination: 098.7145 deg RA of node: 222.7416 deg Eccentricity: 0.0010830 Arg of perigee: 067.4152 deg Mean anomaly: 292.8162 deg Mean motion: 14.20607415 rev/day Decay rate: 8.6e-07 rev/day^2 Epoch rev: 41958 Checksum: 294
Satellite: AO-51 Catalog number: 28375 Epoch time: 11216.58544931 Element set: 37 Inclination: 098.1020 deg RA of node: 192.4956 deg Eccentricity: 0.0083318 Arg of perigee: 284.1293 deg Mean anomaly: 075.0651 deg Mean motion: 14.40771110 rev/day Decay rate: 5.2e-07 rev/day^2 Epoch rev: 37303 Checksum: 283
Satellite: CP3 Catalog number: 31129 Epoch time: 11216.43929340 Element set: 933 Inclination: 097.8957 deg RA of node: 237.8605 deg Eccentricity: 0.0102601 Arg of perigee: 032.1573 deg Mean anomaly: 328.5834 deg Mean motion: 14.52530785 rev/day Decay rate: 4.67e-06 rev/day^2 Epoch rev: 22784 Checksum: 308
Satellite: CO-65 Catalog number: 32785 Epoch time: 11216.68949136 Element set: 60 Inclination: 097.8467 deg RA of node: 279.6493 deg Eccentricity: 0.0015273 Arg of perigee: 022.1446 deg Mean anomaly: 338.0400 deg Mean motion: 14.82068261 rev/day Decay rate: 7.39e-06 rev/day^2 Epoch rev: 17672 Checksum: 325
Satellite: PRISM Catalog number: 33493 Epoch time: 11216.71244532 Element set: 834 Inclination: 098.1296 deg RA of node: 346.0474 deg Eccentricity: 0.0018483 Arg of perigee: 242.8921 deg Mean anomaly: 117.0418 deg Mean motion: 14.81814087 rev/day Decay rate: 7.97e-06 rev/day^2 Epoch rev: 13670 Checksum: 304
Satellite: SOHLA-1 Catalog number: 33496 Epoch time: 11215.91399433 Element set: 0500 Inclination: 098.0843 deg RA of node: 325.2720 deg Eccentricity: 0.0006324 Arg of perigee: 341.1771 deg Mean anomaly: 018.9200 deg Mean motion: 14.69639363 rev/day Decay rate: 1.03e-06 rev/day^2 Epoch rev: 13549 Checksum: 280
Satellite: TISAT-1 Catalog number: 36799 Epoch time: 11216.72728181 Element set: 108 Inclination: 098.0986 deg RA of node: 285.4541 deg Eccentricity: 0.0016475 Arg of perigee: 118.0314 deg Mean anomaly: 242.2556 deg Mean motion: 14.80642500 rev/day Decay rate: 5.96e-06 rev/day^2 Epoch rev: 5749 Checksum: 312
Satellite: STUDSAT Catalog number: 36801 Epoch time: 11215.71727766 Element set: 0226 Inclination: 098.1055 deg RA of node: 284.3323 deg Eccentricity: 0.0014612 Arg of perigee: 109.6103 deg Mean anomaly: 250.6685 deg Mean motion: 14.80828345 rev/day Decay rate: 1.532e-05 rev/day^2 Epoch rev: 05733 Checksum: 280
Satellite: RAX Catalog number: 37223 Epoch time: 11152.36844328 Element set: 0173 Inclination: 071.9713 deg RA of node: 073.6151 deg Eccentricity: 0.0021634 Arg of perigee: 311.5989 deg Mean anomaly: 048.3343 deg Mean motion: 14.77415682 rev/day Decay rate: 6.35e-06 rev/day^2 Epoch rev: 02854 Checksum: 291
Satellite: OOREOS Catalog number: 37224 Epoch time: 11153.29456974 Element set: 0179 Inclination: 071.9726 deg RA of node: 071.8135 deg Eccentricity: 0.0020315 Arg of perigee: 307.7637 deg Mean anomaly: 052.1684 deg Mean motion: 14.77036357 rev/day Decay rate: 4.92e-06 rev/day^2 Epoch rev: 02867 Checksum: 309
Satellite: FO-69 Catalog number: 37227 Epoch time: 11213.85438999 Element set: 0096 Inclination: 071.9710 deg RA of node: 298.5710 deg Eccentricity: 0.0017671 Arg of perigee: 201.5443 deg Mean anomaly: 158.4977 deg Mean motion: 14.76618042 rev/day Decay rate: 9.9e-07 rev/day^2 Epoch rev: 01606 Checksum: 334
Satellite: NANOSALD Catalog number: 37361 Epoch time: 11213.80704868 Element set: 0305 Inclination: 071.9513 deg RA of node: 288.4936 deg Eccentricity: 0.0006681 Arg of perigee: 342.6207 deg Mean anomaly: 017.5346 deg Mean motion: 15.15493526 rev/day Decay rate: 2.33371e-03 rev/day^2 Epoch rev: 02899 Checksum: 308
Satellite: FO-70 Catalog number: 37380 Epoch time: 11213.87530366 Element set: 0230 Inclination: 071.9744 deg RA of node: 298.6878 deg Eccentricity: 0.0018179 Arg of perigee: 198.3721 deg Mean anomaly: 161.6793 deg Mean motion: 14.76383127 rev/day Decay rate: 5.9e-07 rev/day^2 Epoch rev: 03760 Checksum: 332
/EX SB KEPS @ AMSAT $ORB11216.W Orbital Elements 11216.WEATHER
HR AMSAT ORBITAL ELEMENTS FOR WEATHER SATELLITES FROM WA5QGD FORT WORTH,TX August 4, 2011 Send Subscribe/unsubscribe to KEPS at http://www.amsat.org/mailman/listinfo/keps BID: ORB11216.W TO ALL RADIO AMATEURS BT
